Location: Franzen
(48.6167°N, 15.3833°E)
Time: 13:32:52
(UTC+00:00)

Altair - Visible Passes

Search period start: 04 August 2021 00:00
Search period end: 14 August 2021 00:00
Orbit: 1502 x 1682 km, 47.2° (Epoch: 03 August)

Date Brightness Start Highest point End Pass type
(mag) Time Alt. Az. Time Alt. Az. Time Alt. Az.
04 Aug 7.4 00:47:48 25° SW 00:53:43 66° SSE 01:02:48 10° E visible
04 Aug 7.5 02:48:51 10° W 02:58:12 83° S 03:07:24 10° E visible
04 Aug 8.2 22:25:29 28° SE 22:25:29 28° SE 22:32:36 10° E visible
05 Aug 7.4 00:23:27 30° SW 00:28:35 64° SSE 00:37:39 10° ENE visible
05 Aug 7.5 02:23:39 10° W 02:33:02 84° S 02:42:14 10° E visible
05 Aug 8.3 22:01:04 26° SE 22:01:04 26° SE 22:07:20 10° E visible
05 Aug 7.4 23:59:02 34° SW 00:03:27 61° SSE 00:12:30 10° ENE visible
06 Aug 7.4 01:58:27 10° W 02:07:52 83° S 02:17:05 10° E visible
06 Aug 8.4 21:36:33 23° ESE 21:36:33 23° ESE 21:42:01 10° E visible
06 Aug 7.5 23:34:30 37° SSW 23:38:20 59° SSE 23:47:20 10° ENE visible
07 Aug 7.4 01:33:15 10° W 01:42:42 83° S 01:51:55 10° E visible
07 Aug 8.5 21:11:54 21° ESE 21:11:54 21° ESE 21:16:42 10° E visible
07 Aug 7.5 23:09:49 39° SSW 23:13:12 56° SSE 23:22:11 10° ENE visible
08 Aug 7.4 01:08:03 10° W 01:17:32 83° S 01:26:45 10° E visible
08 Aug 8.6 20:46:59 19° ESE 20:46:59 19° ESE 20:51:19 10° E visible
08 Aug 7.5 22:44:54 39° SSW 22:48:06 54° SSE 22:57:01 10° ENE visible
09 Aug 7.4 00:42:51 10° WSW 00:52:22 82° S 01:01:36 10° E visible
09 Aug 7.5 02:47:38 10° W 02:56:56 73° SSW 03:06:03 10° ESE visible
09 Aug 8.6 20:21:37 18° ESE 20:21:37 18° ESE 20:25:53 10° E visible
09 Aug 7.5 22:19:28 36° SSW 22:22:59 51° SSE 22:31:52 10° ENE visible
10 Aug 7.3 00:17:39 10° WSW 00:27:12 81° S 00:36:27 10° E visible
10 Aug 7.4 02:22:27 10° W 02:31:47 75° SSW 02:40:56 10° ESE visible
10 Aug 8.6 19:49:16 10° SSE 19:54:53 17° SE 20:00:24 10° E visible
10 Aug 7.6 21:48:44 10° SW 21:57:52 48° SSE 22:06:41 10° ENE visible
10 Aug 7.3 23:52:28 10° WSW 00:02:02 80° S 00:11:17 10° E visible
11 Aug 7.4 01:57:15 10° W 02:06:38 77° SSW 02:15:48 10° ESE visible
11 Aug 8.6 19:24:50 10° SSE 19:29:52 15° SE 19:34:49 10° E visible
11 Aug 7.6 21:23:42 10° SW 21:32:46 46° SE 21:41:31 10° ENE visible
11 Aug 7.3 23:27:16 10° WSW 23:36:52 78° SSE 23:46:08 10° E visible
12 Aug 7.4 01:32:03 10° W 01:41:29 78° SSW 01:50:40 10° ESE visible
12 Aug 8.7 19:00:34 10° SSE 19:04:52 14° SE 19:09:06 10° E visible
12 Aug 7.7 20:58:41 10° SSW 21:07:40 43° SE 21:16:20 10° ENE visible
12 Aug 7.3 23:02:04 10° WSW 23:11:42 77° SSE 23:20:59 10° E visible
13 Aug 7.3 01:06:50 10° W 01:16:19 80° S 01:25:32 10° ESE visible
13 Aug 7.7 03:11:38 10° WNW 03:20:24 48° SSW 03:29:01 10° SE visible
13 Aug 7.8 20:33:41 10° SSW 20:42:34 41° SE 20:51:09 10° ENE visible
13 Aug 7.3 22:36:53 10° WSW 22:46:32 75° SSE 22:55:50 10° E visible
